OBJECT R, 43891

Orbit data source: Space-Track

You're viewing an Uncataloged Satellite

Recently launched and/or uncataloged satellites may have evolving metadata. Metadata may include but not limited to: Owner, Maufacturer, Bus, Motor, and Mission.

OBJECT R, 43891 is a satellite in SSO that was launched on Thu, 27 Dec 2018 UTC via a SOYUZ-2-1A launch vehicle from the Vostochny Cosmodrome (VOSTO). Unknown objects in Earth's orbit typically refer to objects detected orbiting the Earth but have not yet been identified or cataloged. These objects could be anything from previously untracked satellites, spent rocket stages, debris from satellite collisions, or even natural meteoroids temporarily captured by Earth's gravity.

Loading next visibility...
Identifier
43891, 2018-111R
Orbit
SSO
Country
Flag of TBDTBD
Related business
None
Manufacturer
Unknown
Mission
Non-operational Civil Technology
Bus & Motor
Unknown
Mass
Unknown
Launch date (UTC)
2018-12-27 (7 years ago)
Launch vehicle
SOYUZ-2-1A
Launch site
Vostochny Cosmodrome (VOSTO)
Object type
Unknown
Shape & HBR
Box, 0.1 m
Radar Cross Section
0.080 m², Medium (>0.1 m² and < 1m²)

Expand to show TLE details & history
Last TLE update: 8 hours ago

TLE from 8 hours ago
0 OBJECT R
1 43891U 18111R   25291.32830969  .00006057  00000-0  17800-3 0  9993
2 43891  97.0211 133.2383 0022176  66.2387 294.1181 15.35217337379293
Epoch: 2025-10-18T07:52Z
TLE epoch observation values (Epoch: 2025-10-18T07:52:45.957Z)
Latitude
0.00009°
Longitude
-12.0141°
Altitude
457.227 km
Speed
7.642 km/s
True Right ascension
08h 52m 57s
True Declination
0° 00' 00"
Sunlit
Object was in daylight at epoch
Visualization orbit readout
Latitude
Unknown
Longitude
Unknown
Altitude
Unknown
Speed
Unknown
Apparent Right ascension
Unknown
Apparent Declination
Unknown
Sunlit
N/A
Visualization observer readout
Local Sidereal Time
10:38:32
Azimuth
Unknown
Elevation
Unknown
Doppler factor
Unknown
Orbital elements
Apogee altitude
472.362 km
Perigee altitude
442.046 km
Semi-major axis
6,835.341 km
Eccentricity
0.00222
Inclination
97.0211°
RAAN
133.2383°
Arg. of periapsis
66.2387°
True anomaly
293.8859°
Mean anomaly
294.1181°
Eccentric anomaly
294.00203°
Mean motion
3.84063 °/min
Orbital period
93.73 mins
BSTAR
0.000178
Loading maneuver chart data...
Computing Atmospheric mass density...

Documentation

Showing up to 5 results
|